EW5635 Weather Reports


time (UTC)temp
C
wind
direction
speed
KPH
gust
KPH
rain 1hr
cm
rain 24hr
cm
rain mn
cm
humidity
%
barometer
mb
20260507095551 17 28 3.2 6.4 0.00 0.03 0.00 64 1010.6
20260507094543 17 352 3.2 9.7 0.00 0.03 0.00 65 1010.5
20260507093541 17 11 1.6 6.4 0.00 0.03 0.00 69 1010.5
20260507092539 17 339 3.2 6.4 0.00 0.03 0.00 70 1010.6
20260507091555 16 345 1.6 6.4 0.00 0.03 0.00 73 1010.6
20260507090533 17 16 1.6 6.4 0.00 0.03 0.00 71 1010.5
20260507085530 16 320 4.8 6.4 0.00 0.03 0.00 74 1010.6
20260507084527 16 336 3.2 9.7 0.00 0.03 0.00 74 1010.6
20260507083525 16 302 3.2 6.4 0.00 0.03 0.00 75 1010.5
20260507082523 15 342 1.6 3.2 0.00 0.03 0.00 77 1010.7
20260507081521 15 1 3.2 6.4 0.00 0.03 0.00 80 1010.7
20260507080542 13 295 3.2 6.4 0.00 0.03 0.00 83 1010.8
20260507075616 13 295 1.6 6.4 0.00 0.03 0.00 84 1010.9
20260507074618 12 322 1.6 6.4 0.00 0.03 0.00 84 1010.9
20260507073628 11 326 3.2 6.4 0.00 0.03 0.00 91 1010.9
20260507072605 11 347 1.6 3.2 0.00 0.03 0.00 98 1010.9
20260507071602 10 11 0.0 3.2 0.00 0.03 0.00 98 1011.0
20260507070559 10 0.0 0.0 0.00 0.03 0.00 99 1011.0
20260507065557 9 136 1.6 3.2 0.00 0.03 0.00 99 1010.9
20260507064554 9 135 1.6 3.2 0.00 0.03 0.00 99 1010.9
20260507063551 8 125 1.6 6.4 0.00 0.03 0.00 99 1010.9
20260507062609 8 135 0.0 3.2 0.00 0.03 0.00 99 1010.9
20260507061547 8 23 0.0 3.2 0.00 0.03 0.00 99 1010.7
20260507060543 7 0.0 0.0 0.00 0.03 0.00 99 1010.7
20260507055600 7 0.0 0.0 0.00 0.03 0.00 99 1010.8
20260507054537 7 0.0 0.0 0.00 0.03 0.00 99 1010.7
20260507053535 7 68 0.0 3.2 0.00 0.03 0.00 99 1010.6
20260507052532 7 0.0 0.0 0.00 0.03 0.00 99 1010.5
20260507051549 6 0.0 3.2 0.00 0.03 0.00 99 1010.3
20260507050607 7 2 3.2 6.4 0.00 0.03 0.00 99 1010.4
20260507045544 7 19 3.2 3.2 0.00 0.03 0.00 99 1010.3
20260507044521 7 9 1.6 3.2 0.00 0.03 0.00 99 1010.3
20260507043518 6 0.0 3.2 0.00 0.03 0.00 99 1010.2
20260507042515 6 7 0.0 3.2 0.00 0.03 0.00 98 1010.1
20260507041613 6 23 1.6 3.2 0.00 0.03 0.00 98 1010.0
20260507040631 7 0 1.6 3.2 0.00 0.03 0.00 98 1009.9
20260507035608 7 0 0.0 3.2 0.00 0.03 0.00 98 1010.0
20260507034605 7 0.0 0.0 0.00 0.03 0.00 98 1010.0
20260507033623 7 0.0 3.2 0.00 0.03 0.00 98 1010.0
20260507032600 7 16 1.6 3.2 0.00 0.03 0.00 98 1009.9
20260507031557 8 10 1.6 3.2 0.00 0.03 0.00 98 1009.9
20260507030555 7 4 1.6 3.2 0.00 0.03 0.00 98 1009.9
20260507025551 8 30 0.0 3.2 0.00 0.03 0.00 98 1009.9
20260507024551 7 18 1.6 3.2 0.00 0.03 0.00 97 1009.9
20260507023545 7 11 1.6 3.2 0.00 0.03 0.00 97 1009.9
20260507022542 8 18 1.6 6.4 0.00 0.03 0.00 97 1010.0
20260507021541 8 23 1.6 3.2 0.00 0.03 0.00 97 1010.0
20260507020536 8 23 0.0 3.2 0.00 0.03 0.00 97 1010.0
20260507015532 8 9 1.6 3.2 0.00 0.03 0.00 97 1009.9
20260507014531 8 16 3.2 6.4 0.00 0.03 0.00 96 1009.8
20260507013528 8 357 3.2 6.4 0.00 0.03 0.00 96 1009.7
20260507012546 9 4 1.6 3.2 0.00 0.03 0.00 96 1009.7
20260507011522 10 15 1.6 3.2 0.00 0.03 0.00 96 1009.6
20260507010519 10 21 1.6 3.2 0.00 0.03 0.00 95 1009.6
20260507005516 9 23 0.0 3.2 0.00 0.03 0.00 95 1009.7
20260507004635 10 0.0 0.0 0.00 0.03 0.00 94 1009.6
20260507003612 10 0 0.0 3.2 0.00 0.05 0.00 95 1009.8
20260507002608 10 0.0 3.2 0.00 0.05 0.00 95 1009.8
20260507001605 10 13 1.6 3.2 0.00 0.13 0.00 95 1009.7
20260507000603 10 0.0 0.0 0.00 0.15 0.00 95 1009.7
20260506235600 10 0.0 0.0 0.00 0.18 0.00 95 1009.8
20260506234557 10 0.0 3.2 0.00 0.18 0.00 94 1009.9
20260506233555 10 23 0.0 3.2 0.00 0.20 0.00 94 1009.7
20260506232552 10 0 0.0 3.2 0.00 0.28 0.00 94 1009.8
20260506231549 10 0 1.6 3.2 0.00 0.33 0.00 93 1009.8
20260506230546 10 23 0.0 3.2 0.00 0.33 0.00 94 1009.8
20260506225543 10 0 1.6 3.2 0.00 0.36 0.00 94 1009.9
20260506224548 10 0.0 3.2 0.00 0.36 0.00 94 1009.9
20260506223538 10 0.0 3.2 0.00 0.36 0.00 93 1009.9
20260506222536 10 0.0 3.2 0.00 0.38 0.00 92 1009.7
20260506221532 11 23 0.0 3.2 0.00 0.38 0.00 92 1009.7
20260506220531 11 14 1.6 3.2 0.00 0.38 0.00 91 1009.5
20260506215526 11 0.0 0.0 0.00 0.38 0.38 91 1009.6
20260506214524 11 85 0.0 3.2 0.00 0.43 0.38 91 1009.4
20260506213521 11 8 1.6 3.2 0.00 0.43 0.38 91 1009.2
20260506212519 11 23 0.0 3.2 0.00 0.43 0.38 90 1009.3
20260506211515 11 19 1.6 3.2 0.00 0.43 0.38 89 1009.1
20260506210613 11 341 1.6 3.2 0.00 0.43 0.38 88 1009.0
20260506205610 11 7 3.2 6.4 0.00 0.43 0.38 87 1009.1
20260506204627 12 0 1.6 3.2 0.00 0.43 0.38 86 1008.9
20260506203605 12 347 4.8 9.7 0.00 0.46 0.38 85 1008.8
20260506202602 12 286 3.2 9.7 0.00 0.48 0.38 80 1008.7
20260506201559 12 0.0 3.2 0.00 0.51 0.38 78 1008.4
20260506200556 13 4 1.6 3.2 0.00 0.51 0.38 75 1008.5
20260506195613 13 354 4.8 9.7 0.00 0.51 0.38 73 1008.3
20260506194551 13 3 8.0 17.7 0.00 0.51 0.38 73 1008.3
20260506193548 13 359 4.8 12.9 0.00 0.51 0.38 75 1007.9
20260506192545 13 15 6.4 17.7 0.00 0.51 0.38 77 1007.7
20260506191603 13 16 6.4 14.5 0.00 0.51 0.38 79 1007.5
20260506190540 13 348 4.8 11.3 0.00 0.51 0.38 81 1007.4
20260506185537 14 6 9.7 17.7 0.00 0.51 0.38 81 1007.2
20260506184534 14 357 4.8 12.9 0.00 0.51 0.38 78 1007.2
20260506183531 15 357 3.2 6.4 0.00 0.51 0.38 76 1006.8
20260506182549 16 4 3.2 6.4 0.00 0.51 0.38 73 1006.6
20260506181526 16 320 1.6 3.2 0.00 0.51 0.38 70 1006.4
20260506180523 16 0 3.2 3.2 0.00 0.51 0.38 69 1006.3
20260506175521 17 45 1.6 6.4 0.00 0.51 0.38 67 1006.3
20260506174538 18 191 0.0 3.2 0.00 0.51 0.38 61 1006.1
20260506173516 19 191 1.6 3.2 0.00 0.51 0.38 61 1006.2
20260506172633 18 143 1.6 3.2 0.00 0.51 0.38 63 1005.9
20260506171610 18 187 1.6 6.4 0.00 0.51 0.38 64 1006.0
20260506170608 17 165 3.2 6.4 0.00 0.51 0.38 67 1006.0
20260506165605 17 168 3.2 6.4 0.00 0.51 0.38 69 1005.9
20260506164601 17 180 1.6 6.4 0.00 0.51 0.38 70 1006.0
20260506163618 18 170 3.2 9.7 0.00 0.51 0.38 64 1006.1
20260506162556 18 183 3.2 6.4 0.00 0.51 0.38 61 1006.0
20260506161553 18 161 3.2 11.3 0.00 0.51 0.38 60 1006.0
20260506160550 18 201 1.6 6.4 0.00 0.51 0.38 61 1005.9
20260506155547 17 134 3.2 9.7 0.00 0.51 0.38 61 1006.1
20260506154545 17 156 3.2 9.7 0.00 0.51 0.38 61 1006.0
20260506153542 18 203 4.8 11.3 0.00 0.51 0.38 57 1006.0
20260506152539 20 170 6.4 14.5 0.00 0.51 0.38 54 1006.0
20260506151536 20 185 6.4 12.9 0.00 0.51 0.38 54 1006.0
20260506150528 20 159 4.8 14.5 0.00 0.51 0.38 53 1006.1
20260506145525 20 173 4.8 11.3 0.00 0.51 0.38 50 1006.0
20260506144537 19 190 4.8 9.7 0.00 0.51 0.38 57 1006.1
20260506143615 19 168 1.6 3.2 0.00 0.51 0.38 57 1006.2
20260506142612 20 189 3.2 6.4 0.00 0.51 0.38 53 1006.0
20260506141554 20 192 4.8 12.9 0.00 0.51 0.38 51 1006.0
20260506140611 19 180 6.4 11.3 0.00 0.51 0.38 53 1006.0
20260506135548 19 149 4.8 11.3 0.00 0.51 0.38 53 1006.2
20260506134539 18 158 1.6 6.4 0.00 0.51 0.38 52 1006.0
20260506133558 20 147 3.2 6.4 0.00 0.51 0.38 48 1006.2
20260506132528 20 180 4.8 6.4 0.00 0.51 0.38 50 1006.3
20260506131525 21 199 4.8 9.7 0.00 0.51 0.38 47 1006.3
20260506130517 21 214 1.6 6.4 0.00 0.51 0.38 45 1006.4
20260506125614 21 193 0.0 3.2 0.00 0.51 0.38 52 1006.5
20260506124612 20 164 3.2 9.7 0.00 0.51 0.38 53 1006.5
20260506123553 19 142 1.6 11.3 0.00 0.51 0.38 53 1006.5
20260506122550 17 136 1.6 6.4 0.00 0.51 0.38 56 1006.5
20260506121548 18 160 3.2 9.7 0.00 0.51 0.38 57 1006.7
20260506120539 18 45 4.8 6.4 0.00 0.51 0.38 57 1006.7
20260506115537 19 137 4.8 6.4 0.00 0.51 0.38 60 1006.8
20260506114528 18 145 4.8 9.7 0.00 0.51 0.38 60 1007.0
20260506113526 18 186 4.8 11.3 0.00 0.51 0.38 66 1007.1
20260506112518 17 135 4.8 6.4 0.00 0.51 0.38 66 1007.1
20260506111635 17 174 4.8 11.3 0.03 0.51 0.38 68 1007.4
20260506110612 17 141 3.2 11.3 0.03 0.51 0.38 72 1007.5
20260506105553 15 168 3.2 9.7 0.03 0.51 0.38 79 1007.5
20260506104550 13 184 1.6 6.4 0.03 0.51 0.38 85 1007.5
20260506103608 13 195 3.2 11.3 0.03 0.51 0.38 88 1007.6
20260506102539 14 0.0 0.0 0.03 0.51 0.38 77 1007.6
20260506101536 15 307 6.4 14.5 0.00 0.48 0.36 69 1007.7
20260506100528 18 330 4.8 11.3 0.00 0.48 0.36 61 1007.3